This demonstration page uses our WeatherBlox Daily Observations layout. Learn more.

Left ArrowRight Arrow

30.00354, -91.81873

Hourly Observations for August 27, 2022

Temp ( °F °C ) Dew Point ( °F °C ) Humidity (%) Winds ( mph kmh ) Pressure ( in mb ) Visibility ( mi km ) Precip ( " mm )
12:53 am 00:53 Clear 77 25 74 23.3 90 90 E 5 7 29.97 1015 10 16 0.00 0.00
1:53 am 01:53 Mostly Clear 76 24.4 73 22.8 91 91 SE 3 6 29.96 1015 10 16 0.00 0.00
2:53 am 02:53 Cloudy 76 24.4 73 22.8 91 91 Calm 29.95 1014 8 13 0.00 0.00
3:53 am 03:53 Clear 75 23.9 73 22.8 94 94 SE 3 6 29.94 1014 9 14 0.00 0.00
4:53 am 04:53 Clear with Mist and Fog 75 23.9 72 22.2 90 90 Calm 29.95 1014 6 10 0.00 0.00
5:53 am 05:53 Clear 75 23.9 73 22.8 94 94 Calm 29.95 1014 10 16 0.00 0.00
6:53 am 06:53 Partly Cloudy with Mist and Fog 74 23.3 72 22.2 94 94 Calm 29.96 1015 5 8 0.00 0.00
7:53 am 07:53 Sunny 79 26.1 75 23.9 88 88 Calm 29.96 1015 10 16 0.00 0.00
8:53 am 08:53 Sunny 82 27.8 76 24.4 82 82 Calm 29.96 1015 10 16 0.00 0.00
9:53 am 09:53 Mostly Cloudy 84 28.9 75 23.9 74 74 SE 5 7 29.96 1015 10 16 0.00 0.00
10:42 am 10:42 Partly Cloudy 86 30 74 23.3 67 67 W 5 7 29.95 1014 10 16 0.00 0.00
10:53 am 10:53 Partly Cloudy 86 30 74 23.3 67 67 S 8 13 29.95 1014 10 16 0.00 0.00
11:05 am 11:05 Mostly Cloudy with Rain 80 26.7 75 23.9 85 85 SSW 9 15 29.96 1014 5 8 0.01 0.25
11:08 am 11:08 Cloudy with Nearby Thunderstorms 80 26.7 74 23.3 82 82 SSW 8 13 29.96 1014 5 8 0.01 0.25
11:31 am 11:31 Mostly Cloudy 80 26.7 74 23.3 82 82 S 3 6 29.96 1014 10 16 0.01 0.25
11:45 am 11:45 Partly Cloudy with Thunderstorms 80 26.7 75 23.9 85 85 ENE 5 7 29.95 1014 10 16 0.01 0.25
11:53 am 11:53 Partly Cloudy with Thunderstorms 80 26.7 74 23.3 82 82 Calm 29.95 1014 10 16 0.01 0.25
12:00 pm 12:00 Partly Cloudy with Nearby Thunderstorms 81 27.2 74 23.3 79 79 E 6 9 29.96 1014 10 16 0.00 0.00
12:35 pm 12:35 Mostly Sunny 80 26.7 74 23.3 82 82 E 5 7 29.95 1014 10 16 0.00 0.00
12:53 pm 12:53 Mostly Sunny 80 26.7 75 23.9 85 85 ESE 10 17 29.95 1014 10 16 0.00 0.00
1:17 pm 13:17 Sunny with Nearby Thunderstorms 84 28.9 76 24.4 77 77 SE 7 11 29.94 1014 10 16 0.00 0.00
1:53 pm 13:53 Cloudy with Thunderstorms 79 26.1 74 23.3 85 85 SSW 13 20 29.93 1014 10 16 0.01 0.13
2:03 pm 14:03 Cloudy with Light Rain 78 25.6 73 22.8 85 85 S 7 11 29.92 1013 7 11 0.01 0.13
2:53 pm 14:53 Mostly Sunny 83 28.3 75 23.9 77 77 SE 6 9 29.91 1013 10 16 0.01 0.13
3:53 pm 15:53 Sunny 86 30 76 24.4 72 72 SSE 7 11 29.88 1012 10 16 0.00 0.00
4:53 pm 16:53 Mostly Sunny 85 29.4 73 22.8 68 68 S 8 13 29.88 1012 10 16 0.00 0.00
5:53 pm 17:53 Sunny 83 28.3 75 23.9 77 77 SSW 6 9 29.88 1012 10 16 0.00 0.00
6:53 pm 18:53 Sunny 82 27.8 76 24.4 82 82 Calm 29.87 1011 10 16 0.00 0.00
7:53 pm 19:53 Mostly Cloudy 81 27.2 76 24.4 85 85 Calm 29.88 1012 10 16 0.00 0.00
8:11 pm 20:11 Partly Cloudy 80 26.7 76 24.4 87 87 Calm 29.88 1012 10 16 0.00 0.00
8:53 pm 20:53 Mostly Cloudy 80 26.7 76 24.4 87 87 E 3 6 29.90 1012 10 16 0.00 0.00
9:13 pm 21:13 Cloudy 80 26.7 76 24.4 87 87 ESE 5 7 29.90 1012 10 16 0.00 0.00
9:53 pm 21:53 Mostly Clear 78 25.6 75 23.9 90 90 SE 5 7 29.89 1012 10 16 0.05 1.27
10:53 pm 22:53 Clear 78 25.6 75 23.9 90 90 ENE 3 6 29.91 1013 10 16 0.00 0.00
11:53 pm 23:53 Clear 77 25 75 23.9 94 94 SE 5 7 29.88 1012 10 16 0.00 0.00

Powered by AerisWeather